Location: LC-39B
(28.6273°N, 80.6211°W)
Time: 00:02:33
(UTC+00:00)

ISS - Visible Passes

Search period start: 25 March 2017 00:00
Search period end: 04 April 2017 00:00
Orbit: 399 x 409 km, 51.6° (Epoch: 25 March)

Date Brightness Start Highest point End Pass type
(mag) Time Alt. Az. Time Alt. Az. Time Alt. Az.
25 Mar -1.4 01:22:12 10° SW 01:23:08 18° SW 01:23:08 18° SW visible
25 Mar -2.6 09:35:19 41° E 09:35:19 41° E 09:37:50 10° ESE visible
26 Mar -3.3 00:30:08 10° SSW 00:33:08 36° SE 00:34:28 24° E visible
26 Mar -2.1 10:19:16 18° SW 10:19:16 18° SW 10:20:55 10° S visible
27 Mar -1.8 01:14:19 10° WSW 01:17:09 27° NW 01:18:22 21° N visible
28 Mar -3.4 00:21:30 10° SW 00:24:42 63° NW 00:27:56 10° NE visible
29 Mar -0.7 01:07:45 10° WNW 01:08:59 12° NW 01:10:14 10° NNW visible
30 Mar -1.3 00:13:48 10° W 00:16:23 22° NW 00:18:59 10° NNE visible
